STARLINK-1258, 45381

Orbit data source: Space-Track

STARLINK-1258, 45381 is a payload satellite owned by SpaceX/Seattle (US) in LEO that was launched on Wed, 18 Mar 2020 UTC via an FALCON 9 launch vehicle from the Air Force Eastern Test Range (AFETR). Payloads include a variety of satellites, spacecraft, and rockets equipped with specific instruments for various scientific and technological missions. These include communications satellites like Starlink; space stations such as the ISS; scientific satellites like the Hubble; Earth observation satellites from companies like Planet Labs, Umbra, and HawkEye 360; GPS; miniature CubeSats for education and research; and military/defense satellites.

Loading next visibility...
STARLINK-1258 details
Identifier
45381, 2020-019X
Orbit
LEO
Last TLE update8 hours ago
Origin
Flag of USSpaceX/Seattle (US)
ManufacturerSpaceX/Seattle
MissionOperational Commercial Communications
Bus & MotorSTARLINK, Unknown motor
Mass260 kg wet, ~248 kg dry
Launch date (UTC)
2020-03-18 (5 years ago)
Launch vehicle
FALCON 9
Launch site
Air Force Eastern Test Range (AFETR)
Object type
Payload
Rocket body
Debris
Shape & HBRBox + 1 Pan, 8.86 m
Radar Cross Section13.562 m², Large (>1 m²)

Expand to show TLE details & history

TLE from 8 hours ago
0 STARLINK-1258
1 45381U 20019X   24361.26983037  .00031436  00000-0  21170-2 0  9997
2 45381  53.0540 314.7624 0001452  96.0833 264.0321 15.06451533263921
Epoch: 2024-12-26T06:28Z
Definitive object data (Epoch: 2024-12-26T06:28:33.343Z)
Latitude-0.00008°
Longitude122.37177°
Altitude548.037 km
Speed7.589 km/s
True Right ascension20h 59m 02s
True Declination0° 00' 00"
Sunlit
Object was in daylight at TLE epoch
Visualization TLE readout
Latitude-32.63742°
Longitude92.29498°
Altitude557.916 km
Speed7.582 km/s
Apparent Right ascension21h 53m 59s
Apparent Declination-48° 09' 08"
Sunlit
Object is in daylight
Visualization observer readout
Local Sidereal Time13:36:49
Azimuth120.921° SE
Elevation-50.02°
Doppler factor1
Orbital elements
Apogee altitude548.33 km
Perigee altitude546.319 km
Semi-major axis6,925.461 km
Eccentricity0.0001452
Inclination53.054°
RAAN314.7624°
Arg. of periapsis96.0833°
True anomaly264.01555°
Mean anomaly264.0321°
Eccentric anomaly264.02383°
Mean motion3.76591 °/min
BSTAR0.002117
Orbital period95.59 mins
Loading maneuver chart data...
Loading historical data...
Loading historical data...
Loading historical data...
Loading historical data...
Loading historical data...
Loading historical data...
Loading historical data...

STARLINK-1258 Visibility forecast

Observer location: undefined°, undefined

Span
Click to sort rows by Start time (UTC) header in descending order
Start Az.
Max El. time (UTC)
Max El. Az.
Max El.
End time (UTC)
End Az.
4 mins2024-12-26 22:33:01.177Z160.505° S2024-12-26 22:35:01.177Z128.266° SE15.994°2024-12-26 22:37:01.177Z95.129° ESE
6 mins2024-12-27 00:12:01.177Z245.433° WSW2024-12-27 00:14:01.177Z302.334° NW42.348°2024-12-27 00:18:01.177Z45.376° ENE
4 mins2024-12-27 01:53:01.177Z317.228° NNW2024-12-27 01:54:01.177Z335.317° NNW17.353°2024-12-27 01:57:01.177Z24.529° NE
5 mins2024-12-27 05:14:01.177Z345.821° N2024-12-27 05:16:01.177Z27.655° NE22.482°2024-12-27 05:19:01.177Z78.45° E
6 mins2024-12-27 06:53:01.177Z301.832° NW2024-12-27 06:56:01.177Z191.957° SSW42.033°2024-12-27 06:59:01.177Z141.956° SSE
|